1487347200.7,49973,13.88,73256.3,-6.67,-8.41,-8.37,0,*56
1487347201.94,49974,13.94,73256.8,-6.67,-8.37,-8.37,0,*50
1487347203.17,49975,13.88,73258.5,-6.67,-8.37,-8.37,0,*51
1487347204.37,49976,13.94,73258.5,-6.65,-8.41,-8.37,0,*51
1487347205.6,49977,13.88,73256.5,-6.67,-8.41,-8.37,0,*52
1487347206.8,49978,13.88,73256.8,-6.69,-8.41,-8.33,0,*57
1487347207.99,49979,13.88,73256.0,-6.69,-8.41,-8.33,0,*56
1487347209.19,49980,13.88,73254.0,-6.69,-8.41,-8.33,0,*50
1487347210.38,49981,13.88,73252.3,-6.69,-8.41,-8.33,0,*51
1487347211.58,49982,13.88,73254.8,-6.69,-8.41,-8.33,0,*52
1487347212.76,49983,13.88,73254.5,-6.69,-8.33,-8.33,0,*56
1487347213.95,49984,13.88,73252.8,-6.69,-8.33,-8.33,0,*51
1487347215.15,49985,13.88,73252.0,-6.69,-8.41,-8.29,0,*5E
1487347216.34,49986,13.88,73252.8,-6.69,-8.33,-8.29,0,*58
1487347217.53,49987,13.88,73250.5,-6.69,-8.41,-8.33,0,*57
1487347218.73,49988,13.88,73252.0,-6.69,-8.41,-8.33,0,*58
1487347219.92,49989,13.88,73252.8,-6.69,-8.41,-8.33,0,*59
1487347221.11,49990,13.88,73252.5,-6.69,-8.33,-8.33,0,*54
1487347222.3,49991,13.88,73252.0,-6.69,-8.33,-8.33,0,*55
1487347223.49,49992,13.94,73252.8,-6.69,-8.41,-8.33,0,*53
1487347224.69,49993,13.88,73252.5,-6.69,-8.45,-8.33,0,*56
1487347225.88,49994,13.88,73252.5,-6.69,-8.33,-8.33,0,*50
1487347227.07,49995,13.88,73252.3,-6.69,-8.33,-8.29,0,*5A
1487347228.26,49996,13.88,73252.5,-6.69,-8.33,-8.33,0,*52
1487347229.45,49997,13.88,73252.0,-6.69,-8.33,-8.29,0,*58
1487347230.64,49998,13.94,73254.3,-6.69,-8.33,-8.21,0,*5F
1487347231.83,49999,13.88,73252.5,-6.69,-8.33,-8.21,0,*5E
1487347233.03,50000,13.94,73252.8,-6.69,-8.33,-8.29,0,*57
1487347234.22,50001,13.88,73250.8,-6.69,-8.33,-8.29,0,*56
1487347235.41,50002,13.88,73252.0,-6.69,-8.33,-8.29,0,*55
1487347236.6,50003,13.94,73256.0,-6.69,-8.29,-8.29,0,*5F
1487347237.8,50004,13.88,73254.8,-6.69,-8.21,-8.21,0,*58
1487347239.03,50005,13.88,73252.5,-6.69,-8.21,-8.07,0,*5D
1487347240.23,50006,13.94,73256.0,-6.73,-8.17,-8.17,0,*51
1487347241.43,50007,13.88,73254.0,-6.69,-8.17,-8.17,0,*5B
1487347242.69,50008,13.88,73250.5,-6.69,-8.07,-8.07,0,*54
1487347243.91,50009,13.88,73254.8,-6.69,-8.07,-8.17,0,*54
1487347245.16,50010,13.88,73252.8,-6.69,-8.03,-8.07,0,*59
1487347246.42,50011,13.88,73252.3,-6.69,-8.07,-8.07,0,*5C
1487347247.62,50012,13.88,73254.0,-6.69,-8.17,-8.17,0,*5F
1487347248.88,50013,13.88,73254.8,-6.69,-8.07,-8.07,0,*5E
1487347250.16,50014,13.88,73254.8,-6.67,-8.11,-8.11,0,*57
1487347251.35,50015,13.88,73254.8,-6.69,-8.21,-8.17,0,*5D
1487347252.63,50016,13.88,73252.0,-6.67,-8.11,-8.11,0,*55
1487347253.86,50017,13.88,73252.3,-6.67,-8.17,-8.25,0,*55
1487347255.13,50018,13.94,73258.0,-6.67,-8.11,-8.11,0,*5B
1487347256.41,50019,13.94,73256.8,-6.67,-8.11,-8.03,0,*59
1487347257.68,50020,13.88,73252.3,-6.67,-7.99,-7.99,0,*50
1487347258.95,50021,13.88,73252.5,-6.67,-8.03,-7.99,0,*5D
1487347260.23,50022,13.88,73252.3,-6.67,-7.99,-7.91,0,*5A
1487347261.5,50023,13.88,73252.3,-6.67,-7.99,-7.91,0,*5B
1487347262.78,50024,13.88,73252.0,-6.67,-7.99,-7.99,0,*54
1487347264.05,50025,13.88,73254.0,-6.67,-7.99,-7.91,0,*5D
1487347265.3,50026,13.88,73254.0,-6.65,-7.99,-7.99,0,*54
1487347266.55,50027,13.88,73254.5,-6.67,-7.91,-7.87,0,*50
1487347267.82,50028,13.88,73256.0,-6.67,-7.91,-7.91,0,*58
1487347269.1,50029,13.88,73252.3,-6.67,-7.99,-7.99,0,*59
1487347270.37,50030,13.88,73252.5,-6.67,-7.91,-7.91,0,*51
1487347271.62,50031,13.88,73256.5,-6.65,-7.99,-7.99,0,*52
1487347272.89,50032,13.88,73254.3,-6.67,-7.91,-7.91,0,*53
1487347274.16,50033,13.88,73252.3,-6.67,-7.99,-7.99,0,*52
1487347275.41,50034,13.88,73252.5,-6.65,-7.91,-7.91,0,*57
1487347276.65,50035,13.88,73256.5,-6.65,-7.91,-7.91,0,*56
1487347277.93,50036,13.88,73252.0,-6.67,-7.91,-7.91,0,*57
1487347279.15,50037,13.88,73256.0,-6.65,-7.77,-7.87,0,*5B
1487347280.38,50038,13.88,73252.8,-6.65,-7.77,-7.87,0,*54
1487347281.63,50039,13.88,73258.5,-6.65,-7.77,-7.77,0,*5A
1487347282.89,50040,13.94,73256.3,-6.65,-7.73,-7.77,0,*50
1487347284.11,50041,13.88,73258.3,-6.65,-7.65,-7.87,0,*59
1487347285.36,50042,13.88,73254.0,-6.65,-7.77,-7.77,0,*56
1487347286.62,50043,13.88,73254.5,-6.65,-7.73,-7.77,0,*53
1487347287.87,50044,13.88,73252.8,-6.63,-7.69,-7.83,0,*52
1487347289.15,50045,13.88,73254.3,-6.63,-7.73,-7.73,0,*57
1487347290.4,50046,13.88,73256.0,-6.65,-7.77,-7.77,0,*52
1487347291.65,50047,13.88,73256.8,-6.65,-7.65,-7.73,0,*54
1487347292.91,50048,13.88,73258.8,-6.65,-7.73,-7.73,0,*5C
1487347294.16,50049,13.88,73252.8,-6.65,-7.65,-7.73,0,*5A
1487347295.44,50050,13.88,73258.3,-6.63,-7.61,-7.61,0,*53
1487347296.66,50051,13.88,73256.5,-6.63,-7.49,-7.49,0,*52
1487347297.9,50052,13.88,73256.0,-6.63,-7.49,-7.69,0,*53
1487347299.15,50053,13.88,73252.8,-6.63,-7.49,-7.61,0,*5A
1487347300.42,50054,13.88,73256.0,-6.63,-7.69,-7.73,0,*5C
1487347301.69,50055,13.88,73258.5,-6.63,-7.69,-7.73,0,*5D
1487347302.95,50056,13.88,73256.3,-6.63,-7.61,-7.83,0,*59
1487347304.22,50057,13.88,73256.8,-6.63,-7.61,-7.69,0,*5C
1487347305.49,50058,13.88,73256.0,-6.63,-7.69,-7.69,0,*5B
1487347306.74,50059,13.88,73256.5,-6.63,-7.69,-7.83,0,*5E
1487347307.96,50060,13.88,73256.3,-6.63,-7.83,-7.87,0,*54
1487347309.22,50061,13.88,73258.8,-6.63,-7.73,-7.83,0,*5E
1487347310.49,50062,13.88,73258.0,-6.63,-7.73,-7.69,0,*59
1487347311.74,50063,13.88,73256.0,-6.63,-7.69,-7.83,0,*57
1487347312.97,50064,13.88,73256.8,-6.61,-7.73,-7.87,0,*5D
1487347314.24,50065,13.88,73254.3,-6.63,-7.95,-7.99,0,*59
1487347315.51,50066,13.88,73260.8,-6.63,-7.95,-7.95,0,*56
1487347316.77,50067,13.88,73258.8,-6.61,-8.07,-8.07,0,*55
1487347317.99,50068,13.88,73256.0,-6.63,-8.21,-8.21,0,*58
1487347319.21,50069,13.88,73256.8,-6.63,-8.21,-8.21,0,*59
1487347320.46,50070,13.88,73258.0,-6.65,-8.11,-8.11,0,*57
1487347321.71,50071,13.88,73254.8,-6.63,-8.11,-8.21,0,*53
1487347322.93,50072,13.88,73256.3,-6.63,-8.21,-8.21,0,*53
1487347324.15,50073,13.88,73254.3,-6.63,-8.21,-8.21,0,*52
1487347325.35,50074,13.88,73254.8,-6.65,-8.17,-8.25,0,*52
1487347326.55,50075,13.88,73254.3,-6.65,-8.17,-8.17,0,*52
1487347327.83,50076,13.88,73252.0,-6.67,-8.11,-8.11,0,*53
1487347329.11,50077,13.88,73252.8,-6.63,-8.11,-8.07,0,*51
1487347330.33,50078,13.94,73252.3,-6.67,-8.17,-8.17,0,*5D
1487347331.53,50079,13.88,73250.3,-6.65,-8.17,-8.25,0,*5F
1487347332.75,50080,13.88,73248.3,-6.65,-8.03,-8.17,0,*5D
1487347333.97,50081,13.88,73250.3,-6.67,-8.25,-8.25,0,*5B
1487347335.17,50082,13.88,73252.3,-6.65,-8.25,-8.25,0,*5A
1487347336.37,50083,13.88,73250.3,-6.65,-8.17,-8.17,0,*5B
1487347337.59,50084,13.88,73252.3,-6.67,-8.25,-8.25,0,*5E
1487347338.79,50085,13.88,73252.5,-6.65,-8.29,-8.29,0,*5D
1487347340.01,50086,13.88,73252.3,-6.67,-8.17,-8.25,0,*5D
1487347341.23,50087,13.88,73252.8,-6.67,-8.25,-8.25,0,*5D
1487347342.46,50088,13.88,73254.0,-6.67,-8.25,-8.25,0,*52
1487347343.65,50089,13.88,73254.0,-6.65,-8.29,-8.29,0,*51
1487347344.85,50090,13.88,73252.0,-6.65,-8.29,-8.29,0,*59
1487347346.07,50091,13.88,73252.8,-6.67,-8.41,-8.45,0,*5E
1487347347.27,50092,13.88,73254.0,-6.65,-8.55,-8.55,0,*5B
1487347348.5,50093,13.88,73254.8,-6.67,-8.41,-8.45,0,*5C
1487347349.69,50094,13.88,73252.0,-6.65,-8.45,-8.67,0,*5D
1487347350.91,50095,13.88,73254.0,-6.67,-8.41,-8.41,0,*5E
1487347352.14,50096,13.88,73254.8,-6.67,-8.37,-8.45,0,*58
1487347353.34,50097,13.88,73250.5,-6.65,-8.41,-8.45,0,*5A
1487347354.57,50098,13.88,73254.5,-6.67,-8.41,-8.41,0,*53
1487347355.8,50099,13.88,73250.0,-6.67,-8.45,-8.41,0,*56
1487347357.02,50100,13.88,73254.3,-6.67,-8.41,-8.41,0,*53
1487347358.25,50101,13.88,73248.5,-6.67,-8.41,-8.45,0,*56
1487347359.44,50102,13.88,73250.3,-6.65,-8.45,-8.55,0,*52
1487347360.66,50103,13.88,73256.0,-6.67,-8.45,-8.59,0,*5D
1487347361.86,50104,13.88,73258.0,-6.65,-8.41,-8.41,0,*55
1487347363.09,50105,13.88,73258.5,-6.67,-8.45,-8.45,0,*56
1487347364.32,50106,13.88,73252.5,-6.67,-8.41,-8.41,0,*55
1487347365.55,50107,13.94,73256.0,-6.67,-8.41,-8.45,0,*50
1487347366.77,50108,13.88,73250.3,-6.67,-8.45,-8.59,0,*56
1487347367.99,50109,13.88,73252.5,-6.67,-8.41,-8.55,0,*5F
1487347369.22,50110,13.88,73254.8,-6.67,-8.45,-8.45,0,*52
1487347370.44,50111,13.88,73254.3,-6.67,-8.55,-8.59,0,*5F
1487347371.66,50112,13.88,73254.0,-6.67,-8.45,-8.55,0,*51
1487347372.89,50113,13.88,73254.0,-6.67,-8.37,-8.45,0,*54
1487347374.11,50114,13.88,73252.8,-6.67,-8.37,-8.41,0,*57
1487347375.34,50115,13.88,73254.0,-6.67,-8.41,-8.41,0,*57
1487347376.56,50116,13.88,73256.8,-6.67,-8.59,-8.59,0,*54
1487347377.83,50117,13.88,73252.8,-6.67,-8.81,-8.81,0,*55
1487347379.04,50118,13.88,73252.0,-6.67,-8.67,-8.67,0,*5A
1487347380.26,50119,13.88,73254.8,-6.67,-8.67,-8.59,0,*56
1487347381.48,50120,13.88,73258.8,-6.67,-8.59,-8.67,0,*5C
1487347382.73,50121,13.88,73252.3,-6.67,-8.81,-8.85,0,*54
1487347383.95,50122,13.88,73254.5,-6.65,-8.71,-8.81,0,*5E
1487347385.15,50123,13.88,73254.5,-6.69,-8.75,-8.75,0,*5C
1487347386.35,50124,13.88,73252.5,-6.69,-8.71,-8.71,0,*5B
1487347387.54,50125,13.88,73248.8,-6.69,-8.59,-8.63,0,*53
1487347388.74,50126,13.88,73252.8,-6.69,-8.63,-8.63,0,*59
1487347389.93,50127,13.88,73254.5,-6.69,-8.75,-8.75,0,*58
1487347391.13,50128,13.88,73252.8,-6.69,-8.75,-8.71,0,*53
1487347392.35,50129,13.88,73252.8,-6.69,-8.59,-8.51,0,*5E
1487347393.58,50130,13.88,73256.3,-6.69,-8.59,-8.51,0,*56
1487347394.78,50131,13.88,73258.8,-6.73,-8.71,-8.75,0,*50
1487347395.97,50132,13.88,73258.0,-6.69,-8.63,-8.63,0,*5C
1487347397.17,50133,13.88,73254.3,-6.69,-8.59,-8.63,0,*54
1487347398.36,50134,13.88,73252.5,-6.69,-8.63,-8.59,0,*53
1487347399.56,50135,13.88,73254.3,-6.69,-8.63,-8.63,0,*5B
1487347400.75,50136,13.88,73254.5,-6.69,-8.59,-8.59,0,*58
1487347401.95,50137,13.88,73256.5,-6.69,-8.59,-8.59,0,*59
1487347403.14,50138,13.88,73254.8,-6.73,-8.59,-8.63,0,*54
1487347404.34,50139,13.88,73254.3,-6.69,-8.63,-8.59,0,*5E
1487347405.59,50140,13.88,73254.8,-6.73,-8.51,-8.51,0,*52
1487347406.79,50141,13.88,73252.8,-6.69,-8.63,-8.63,0,*58
1487347407.98,50142,13.88,73252.0,-6.69,-8.59,-8.59,0,*5B
1487347409.21,50143,13.88,73252.3,-6.69,-8.59,-8.51,0,*52
1487347410.44,50144,13.88,73254.5,-6.73,-8.51,-8.45,0,*53
1487347411.66,50145,13.88,73252.8,-6.69,-8.59,-8.51,0,*54
1487347412.86,50146,13.88,73252.5,-6.73,-8.63,-8.63,0,*54
1487347414.06,50147,13.88,73250.8,-6.69,-8.71,-8.63,0,*5D
1487347415.26,50148,13.88,73254.5,-6.73,-8.59,-8.63,0,*53
1487347416.45,50149,13.88,73250.0,-6.73,-8.59,-8.71,0,*51
1487347417.68,50150,13.88,73252.5,-6.73,-8.51,-8.59,0,*5B
1487347418.91,50151,13.88,73248.5,-6.73,-8.45,-8.51,0,*57
1487347420.1,50152,13.88,73248.8,-6.73,-8.59,-8.63,0,*58
1487347421.3,50153,13.88,73250.0,-6.73,-8.63,-8.71,0,*53
1487347422.5,50154,13.88,73250.5,-6.73,-8.59,-8.71,0,*5D
1487347423.73,50155,13.88,73250.0,-6.73,-8.51,-8.59,0,*5E
1487347424.93,50156,13.88,73252.0,-6.73,-8.45,-8.59,0,*58
1487347426.15,50157,13.88,73252.8,-6.73,-8.51,-8.63,0,*55
1487347427.35,50158,13.88,73248.8,-6.73,-8.45,-8.71,0,*5C
1487347428.55,50159,13.88,73252.0,-6.73,-8.45,-8.59,0,*57
1487347429.78,50160,13.88,73254.0,-6.73,-8.41,-8.51,0,*51
1487347431.0,50161,13.88,73250.8,-6.69,-8.41,-8.51,0,*5B
1487347432.23,50162,13.88,73256.0,-6.73,-8.41,-8.51,0,*53
1487347433.46,50163,13.88,73252.3,-6.73,-8.41,-8.51,0,*52
1487347434.68,50164,13.88,73252.0,-6.69,-8.41,-8.51,0,*5E
1487347435.91,50165,13.94,73258.3,-6.73,-8.41,-8.51,0,*54
1487347437.13,50166,13.88,73254.5,-6.73,-8.51,-8.63,0,*57
1487347438.36,50167,13.88,73248.8,-6.73,-8.51,-8.63,0,*56
1487347439.58,50168,13.88,73248.5,-6.75,-8.55,-8.67,0,*5F
1487347440.77,50169,13.88,73248.3,-6.69,-8.45,-8.59,0,*5F
1487347442.0,50170,13.88,73250.8,-6.73,-8.51,-8.59,0,*59
1487347443.25,50171,13.88,73248.5,-6.69,-8.51,-8.51,0,*5B
1487347444.47,50172,13.88,73256.8,-6.69,-8.41,-8.51,0,*59
1487347445.67,50173,13.88,73252.0,-6.69,-8.45,-8.59,0,*54
1487347446.9,50174,13.88,73254.5,-6.73,-8.41,-8.51,0,*54
1487347448.1,50175,13.88,73252.5,-6.73,-8.45,-8.45,0,*54
1487347449.33,50176,13.88,73254.8,-6.69,-8.45,-8.51,0,*59
1487347450.55,50177,13.88,73250.0,-6.73,-8.45,-8.51,0,*53
1487347451.75,50178,13.88,73248.8,-6.73,-8.59,-8.59,0,*59
1487347452.98,50179,13.88,73248.8,-6.73,-8.45,-8.51,0,*5D
1487347454.18,50180,13.88,73252.3,-6.69,-8.41,-8.45,0,*51
1487347455.37,50181,13.88,73254.3,-6.69,-8.33,-8.41,0,*51
1487347456.57,50182,13.88,73250.8,-6.69,-8.41,-8.33,0,*52
1487347457.76,50183,13.88,73252.5,-6.73,-8.33,-8.33,0,*5D
1487347458.95,50184,13.88,73252.8,-6.73,-8.33,-8.41,0,*5F
1487347460.14,50185,13.88,73248.8,-6.69,-8.33,-8.33,0,*50
1487347461.33,50186,13.88,73252.5,-6.73,-8.33,-8.33,0,*58
1487347462.53,50187,13.88,73254.8,-6.69,-8.17,-8.29,0,*5F
1487347463.76,50188,13.88,73254.3,-6.73,-8.07,-8.21,0,*52
1487347464.95,50189,13.88,73254.8,-6.69,-8.21,-8.29,0,*54
1487347466.15,50190,13.88,73252.5,-6.69,-8.21,-8.21,0,*54
1487347467.35,50191,13.88,73254.8,-6.69,-8.41,-8.41,0,*55
1487347468.54,50192,13.88,73254.3,-6.69,-8.33,-8.41,0,*53
1487347469.73,50193,13.88,73254.8,-6.69,-8.33,-8.33,0,*57
1487347470.96,50194,13.88,73252.3,-6.69,-8.41,-8.51,0,*51
1487347472.15,50195,13.88,73252.8,-6.73,-8.45,-8.59,0,*57
1487347473.38,50196,13.88,73248.5,-6.69,-8.45,-8.51,0,*57
1487347474.6,50197,13.88,73252.5,-6.69,-8.45,-8.51,0,*56
1487347475.8,50198,13.88,73254.5,-6.69,-8.59,-8.59,0,*5C
1487347477.05,50199,13.88,73250.0,-6.69,-8.51,-8.51,0,*5D
1487347478.27,50200,13.88,73248.3,-6.69,-8.45,-8.51,0,*5B
1487347479.47,50201,13.88,73252.5,-6.69,-8.45,-8.59,0,*52
1487347480.66,50202,13.88,73250.8,-6.69,-8.59,-8.63,0,*55
1487347481.88,50203,13.88,73252.5,-6.69,-8.51,-8.59,0,*55
1487347483.08,50204,13.88,73248.3,-6.69,-8.63,-8.63,0,*5A
1487347484.28,50205,13.88,73250.0,-6.69,-8.63,-8.63,0,*5B
1487347485.47,50206,13.88,73248.8,-6.73,-8.63,-8.59,0,*5A
1487347486.67,50207,13.88,73250.0,-6.69,-8.63,-8.59,0,*50
1487347487.87,50208,13.88,73250.3,-6.69,-8.59,-8.63,0,*5F
1487347489.09,50209,13.88,73248.5,-6.69,-8.59,-8.51,0,*5F
1487347490.31,50210,13.88,73248.3,-6.69,-8.59,-8.51,0,*57
1487347491.53,50211,13.88,73248.0,-6.69,-8.59,-8.51,0,*56
1487347492.78,50212,13.88,73250.0,-6.69,-8.51,-8.51,0,*5D
1487347494.01,50213,13.88,73244.0,-6.67,-8.55,-8.41,0,*57
1487347495.23,50214,13.88,73250.5,-6.69,-8.45,-8.51,0,*5E
1487347496.44,50215,13.88,73248.0,-6.73,-8.45,-8.41,0,*55
1487347497.63,50216,13.88,73246.3,-6.69,-8.41,-8.33,0,*5C
1487347498.83,50217,13.88,73250.5,-6.69,-8.41,-8.41,0,*58
1487347500.02,50218,13.88,73246.0,-6.69,-8.41,-8.33,0,*52
1487347501.22,50219,13.88,73250.5,-6.69,-8.41,-8.41,0,*56
1487347502.42,50220,13.88,73248.8,-6.69,-8.41,-8.41,0,*5C
1487347503.64,50221,13.88,73248.8,-6.69,-8.51,-8.63,0,*5C
1487347504.87,50222,13.88,73250.0,-6.67,-8.71,-8.67,0,*57
1487347506.06,50223,13.88,73244.5,-6.69,-8.59,-8.71,0,*55
1487347507.26,50224,13.88,73246.3,-6.69,-8.59,-8.63,0,*51
1487347508.45,50225,13.88,73244.8,-6.69,-8.63,-8.71,0,*5A
1487347509.65,50226,13.88,73246.5,-6.69,-8.59,-8.63,0,*53
1487347510.84,50227,13.88,73250.0,-6.69,-8.45,-8.59,0,*56
1487347512.06,50228,13.88,73248.3,-6.67,-8.45,-8.55,0,*5B
1487347513.26,50229,13.88,73248.8,-6.69,-8.45,-8.45,0,*55
1487347514.46,50230,13.88,73254.0,-6.69,-8.45,-8.45,0,*5D
1487347515.66,50231,13.88,73250.5,-6.69,-8.63,-8.75,0,*5B
1487347516.86,50232,13.88,73254.0,-6.69,-8.71,-8.75,0,*5B
1487347518.06,50233,13.88,73252.8,-6.69,-8.63,-8.59,0,*57
1487347519.25,50234,13.88,73252.3,-6.69,-8.63,-8.63,0,*59
1487347520.45,50235,13.88,73254.3,-6.69,-8.59,-8.59,0,*58
1487347521.65,50236,13.88,73254.8,-6.73,-8.71,-8.71,0,*50
1487347522.85,50237,13.88,73250.0,-6.69,-8.71,-8.59,0,*50
1487347524.05,50238,13.88,73248.8,-6.69,-8.75,-8.75,0,*55
1487347525.24,50239,13.88,73254.3,-6.69,-8.63,-8.59,0,*5D
1487347526.44,50240,13.88,73248.0,-6.69,-8.75,-8.71,0,*5E
1487347527.63,50241,13.88,73250.8,-6.69,-8.75,-8.71,0,*5F
1487347528.86,50242,13.88,73250.5,-6.69,-8.59,-8.51,0,*50
1487347530.05,50243,13.88,73250.0,-6.69,-8.75,-8.71,0,*5D
1487347531.25,50244,13.88,73248.3,-6.69,-8.71,-8.71,0,*5E
1487347532.45,50245,13.88,73250.0,-6.69,-8.71,-8.59,0,*55
1487347533.65,50246,13.88,73248.0,-6.69,-8.71,-8.59,0,*56
1487347534.88,50247,13.88,73254.0,-6.69,-8.59,-8.51,0,*55
1487347536.1,50248,13.88,73250.3,-6.73,-8.59,-8.51,0,*51
1487347537.3,50249,13.88,73254.3,-6.69,-8.63,-8.63,0,*53
1487347538.49,50250,13.88,73250.3,-6.69,-8.75,-8.71,0,*5F
1487347539.69,50251,13.88,73248.5,-6.69,-8.71,-8.71,0,*5A
1487347540.89,50252,13.88,73248.0,-6.69,-8.63,-8.63,0,*59
1487347542.09,50253,13.88,73248.3,-6.69,-8.63,-8.63,0,*58
1487347543.28,50254,13.88,73248.8,-6.69,-8.63,-8.59,0,*56
1487347544.48,50255,13.88,73250.8,-6.69,-8.63,-8.63,0,*5E
1487347545.7,50256,13.88,73248.8,-6.67,-8.55,-8.59,0,*5F
1487347546.93,50257,13.88,73248.3,-6.67,-8.55,-8.59,0,*5E
1487347548.12,50258,13.88,73244.0,-6.69,-8.59,-8.59,0,*53
1487347549.31,50259,13.88,73250.0,-6.69,-8.59,-8.59,0,*52
1487347550.54,50260,13.88,73248.3,-6.67,-8.55,-8.59,0,*5A
1487347551.76,50261,13.88,73248.0,-6.67,-8.71,-8.59,0,*5D
1487347553.03,50262,13.88,73248.3,-6.67,-8.81,-8.81,0,*54
1487347554.25,50263,13.88,73250.0,-6.67,-8.67,-8.71,0,*52
1487347555.47,50264,13.88,73252.3,-6.67,-8.59,-8.59,0,*52
1487347556.69,50265,13.88,73250.0,-6.67,-8.59,-8.59,0,*53
1487347557.91,50266,13.88,73252.0,-6.67,-8.59,-8.59,0,*50
1487347559.13,50267,13.88,73248.8,-6.67,-8.71,-8.67,0,*56
1487347560.33,50268,13.88,73254.3,-6.65,-8.55,-8.59,0,*50
1487347561.55,50269,13.88,73252.3,-6.67,-8.67,-8.71,0,*58
1487347562.77,50270,13.88,73254.3,-6.67,-8.67,-8.71,0,*50
1487347563.96,50271,13.88,73248.3,-6.65,-8.59,-8.67,0,*59
1487347565.19,50272,13.88,73248.5,-6.67,-8.55,-8.59,0,*59
1487347566.41,50273,13.88,73250.0,-6.67,-8.55,-8.55,0,*54
1487347567.62,50274,13.88,73252.3,-6.67,-8.59,-8.55,0,*5F
1487347568.84,50275,13.88,73250.5,-6.67,-8.59,-8.59,0,*52
1487347570.06,50276,13.88,73250.3,-6.67,-8.59,-8.55,0,*5D
1487347571.28,50277,13.88,73254.3,-6.67,-8.55,-8.55,0,*50
1487347572.51,50278,13.88,73252.8,-6.67,-8.45,-8.45,0,*5F
1487347573.74,50279,13.88,73248.5,-6.67,-8.45,-8.45,0,*5E
1487347574.96,50280,13.88,73252.5,-6.67,-8.45,-8.55,0,*59
1487347576.16,50281,13.88,73248.5,-6.65,-8.55,-8.59,0,*57
1487347577.38,50282,13.88,73250.8,-6.67,-8.55,-8.41,0,*5F
1487347578.61,50283,13.88,73256.0,-6.67,-8.45,-8.45,0,*5B
1487347579.84,50284,13.88,73254.8,-6.67,-8.45,-8.45,0,*5C
1487347581.06,50285,13.88,73252.3,-6.67,-8.45,-8.55,0,*5C
1487347582.28,50286,13.88,73254.8,-6.67,-8.59,-8.59,0,*5E
1487347583.5,50287,13.88,73252.5,-6.67,-8.59,-8.67,0,*52
1487347584.71,50288,13.88,73254.3,-6.67,-8.59,-8.67,0,*5D
1487347585.94,50289,13.88,73254.8,-6.67,-8.71,-8.59,0,*5B
1487347587.14,50290,13.88,73252.5,-6.65,-8.71,-8.67,0,*5C
1487347588.36,50291,13.88,73254.3,-6.67,-8.71,-8.71,0,*58
1487347589.59,50292,13.88,73254.3,-6.67,-8.55,-8.55,0,*5B
1487347590.81,50293,13.88,73252.5,-6.67,-8.55,-8.55,0,*5A
1487347592.04,50294,13.88,73252.5,-6.67,-8.55,-8.45,0,*5C
1487347593.23,50295,13.88,73254.3,-6.65,-8.55,-8.55,0,*5E
1487347594.46,50296,13.88,73250.3,-6.67,-8.37,-8.41,0,*5E
1487347595.66,50297,13.88,73254.5,-6.65,-8.41,-8.37,0,*5D
1487347596.86,50298,13.88,73250.5,-6.65,-8.29,-8.37,0,*5C
1487347598.09,50299,13.88,73254.0,-6.67,-8.41,-8.45,0,*54
1487347599.31,50300,13.88,73254.3,-6.67,-8.55,-8.59,0,*5D
1487347600.53,50301,13.88,73250.0,-6.67,-8.59,-8.59,0,*50
1487347601.75,50302,13.88,73252.5,-6.67,-8.55,-8.55,0,*53
1487347602.95,50303,13.88,73254.5,-6.65,-8.41,-8.41,0,*50
1487347604.15,50304,13.88,73254.3,-6.65,-8.41,-8.45,0,*53
1487347605.35,50305,13.88,73254.3,-6.65,-8.55,-8.59,0,*5A
1487347606.54,50306,13.88,73252.0,-6.65,-8.67,-8.71,0,*52
1487347607.74,50307,13.88,73254.5,-6.65,-8.71,-8.71,0,*54
1487347608.93,50308,13.88,73252.3,-6.65,-8.67,-8.67,0,*5B
1487347610.18,50309,13.88,73252.8,-6.67,-8.71,-8.81,0,*57
1487347611.39,50310,13.88,73252.0,-6.65,-8.85,-8.85,0,*52
1487347612.6,50311,13.88,73252.5,-6.65,-8.85,-8.85,0,*53
1487347613.83,50312,13.88,73252.3,-6.67,-8.71,-8.67,0,*55
1487347615.02,50313,13.88,73250.8,-6.65,-8.67,-8.55,0,*50
1487347616.21,50314,13.88,73248.0,-6.65,-8.55,-8.55,0,*56
1487347617.43,50315,13.88,73250.8,-6.67,-8.59,-8.55,0,*59
1487347618.62,50316,13.88,73248.3,-6.65,-8.59,-8.59,0,*54
1487347619.84,50317,13.88,73252.0,-6.67,-8.59,-8.55,0,*5B
1487347621.07,50318,13.88,73252.8,-6.67,-8.71,-8.59,0,*52
1487347622.28,50319,13.88,73252.0,-6.67,-8.59,-8.55,0,*55
1487347623.48,50320,13.88,73254.0,-6.65,-8.59,-8.55,0,*5D
1487347624.7,50321,13.88,73252.8,-6.67,-8.55,-8.55,0,*52
1487347625.89,50322,13.88,73252.8,-6.65,-8.59,-8.41,0,*5A
1487347627.09,50323,13.88,73254.3,-6.65,-8.45,-8.55,0,*53
1487347628.28,50324,13.88,73252.8,-6.65,-8.59,-8.59,0,*55
1487347629.5,50325,13.88,73254.3,-6.67,-8.67,-8.67,0,*56
1487347630.69,50326,13.88,73256.5,-6.65,-8.71,-8.67,0,*50
1487347631.89,50327,13.88,73252.5,-6.65,-8.67,-8.71,0,*51
1487347633.09,50328,13.88,73252.3,-6.65,-8.93,-8.93,0,*59
1487347634.32,50329,13.88,73252.5,-6.65,-8.81,-8.85,0,*5C
1487347635.52,50330,13.88,73254.0,-6.65,-8.85,-8.85,0,*50
1487347636.79,50331,13.88,73254.8,-6.67,-8.81,-8.81,0,*53
1487347638.02,50332,13.88,73252.0,-6.65,-8.71,-8.81,0,*5D
1487347639.24,50333,13.88,73252.0,-6.65,-8.71,-8.81,0,*5C
1487347640.48,50334,13.88,73254.5,-6.67,-8.85,-8.85,0,*56
1487347641.68,50335,13.88,73248.0,-6.65,-8.85,-8.85,0,*55
1487347642.91,50336,13.88,73246.0,-6.65,-8.81,-8.93,0,*55
1487347644.14,50337,13.88,73254.0,-6.67,-8.85,-8.97,0,*56
1487347645.34,50338,13.88,73248.8,-6.65,-8.85,-8.93,0,*5F
1487347646.61,50339,13.88,73254.8,-6.67,-8.81,-8.81,0,*5B
1487347647.84,50340,13.88,73248.3,-6.67,-8.85,-8.93,0,*52
1487347649.1,50341,13.88,73254.8,-6.67,-8.81,-8.85,0,*50
1487347650.36,50342,13.88,73248.5,-6.67,-8.81,-8.81,0,*57
1487347651.56,50343,13.88,73256.3,-6.65,-8.71,-8.71,0,*54
1487347652.75,50344,13.88,73252.5,-6.65,-8.67,-8.67,0,*53
1487347653.97,50345,13.88,73252.3,-6.67,-8.59,-8.67,0,*5D
1487347655.19,50346,13.88,73252.0,-6.67,-8.55,-8.67,0,*52
1487347656.41,50347,13.88,73248.8,-6.67,-8.59,-8.59,0,*52
1487347657.63,50348,13.88,73256.0,-6.67,-8.55,-8.59,0,*51
1487347658.85,50349,13.88,73252.5,-6.67,-8.67,-8.71,0,*5B
1487347660.04,50350,13.88,73252.5,-6.65,-8.67,-8.67,0,*56
1487347661.26,50351,13.88,73254.0,-6.67,-8.67,-8.67,0,*55
1487347662.45,50352,13.88,73258.3,-6.65,-8.67,-8.67,0,*54
1487347663.69,50353,13.88,73252.3,-6.67,-8.85,-8.85,0,*57
1487347664.95,50354,13.88,73254.5,-6.67,-8.81,-8.81,0,*50
1487347666.17,50355,13.88,73252.3,-6.65,-8.67,-8.81,0,*5B
1487347667.38,50356,13.88,73252.0,-6.65,-8.85,-8.85,0,*50
1487347668.61,50357,13.88,73254.5,-6.67,-8.85,-8.85,0,*53
1487347669.82,50358,13.88,73252.0,-6.65,-8.85,-8.85,0,*5E
1487347671.02,50359,13.88,73254.0,-6.65,-8.97,-8.97,0,*5F
1487347672.25,50360,13.88,73252.5,-6.67,-8.85,-8.93,0,*50
1487347673.49,50361,13.88,73248.5,-6.67,-8.93,-8.93,0,*56
1487347674.7,50362,13.88,73254.5,-6.65,-8.93,-8.85,0,*50
1487347675.92,50363,13.88,73254.8,-6.65,-8.81,-8.85,0,*52
1487347677.15,50364,13.88,73250.8,-6.67,-8.93,-8.97,0,*57
1487347678.38,50365,13.88,73250.8,-6.67,-8.93,-8.93,0,*52
1487347679.61,50366,13.88,73252.5,-6.67,-8.93,-8.97,0,*55
1487347680.82,50367,13.88,73250.0,-6.65,-8.93,-8.93,0,*52
1487347682.02,50368,13.88,73250.5,-6.65,-8.85,-8.71,0,*56
1487347683.26,50369,13.88,73250.5,-6.67,-8.81,-8.71,0,*51
1487347684.53,50370,13.88,73254.5,-6.67,-8.81,-8.81,0,*56
1487347685.78,50371,13.88,73254.0,-6.67,-8.81,-8.71,0,*58
1487347687.03,50372,13.88,73252.5,-6.67,-8.85,-8.81,0,*50
1487347688.28,50373,13.88,73248.5,-6.67,-8.85,-8.81,0,*51
1487347689.49,50374,13.88,73248.5,-6.65,-8.85,-8.85,0,*50
1487347690.74,50375,13.88,73252.0,-6.67,-8.85,-8.81,0,*57
1487347691.99,50376,13.88,73252.0,-6.67,-8.85,-8.81,0,*54
1487347693.19,50377,13.88,73250.8,-6.65,-8.71,-8.71,0,*53
1487347694.43,50378,13.88,73250.5,-6.67,-8.85,-8.93,0,*59
1487347695.63,50379,13.88,73252.8,-6.65,-8.85,-8.85,0,*5D
1487347696.86,50380,13.88,73254.5,-6.67,-8.71,-8.71,0,*59
1487347698.09,50381,13.88,73252.5,-6.67,-8.85,-8.71,0,*53
1487347699.31,50382,13.88,73250.8,-6.65,-8.81,-8.71,0,*56
1487347700.52,50383,13.88,73252.5,-6.67,-8.67,-8.67,0,*5A
1487347701.75,50384,13.88,73254.0,-6.67,-8.67,-8.71,0,*5A
1487347702.97,50385,13.88,73252.8,-6.67,-8.67,-8.71,0,*5B
1487347704.18,50386,13.88,73254.3,-6.67,-8.67,-8.67,0,*5F